Skip Page Navigation
NASA JPL Caltech
NASA Logo - Jet Propulsion Laboratory + View the NASA Portal
+ Center for Near-Earth Object Studies
JPL Home Earth Solar System Stars & Galaxies Technology
JPL Solar System Dynamics
BODIES ORBITS EPHEMERIDES TOOLS PHYSICAL DATA DISCOVERY FAQ SITE MAP
JPL Small-Body Database Browser
Search: [ help ]  
351369 (2005 CY67)
Classification: Main-belt Asteroid          SPK-ID: 2351369
Ephemeris | Orbit Diagram | Orbital Elements | Mission Design | Physical Parameters | Discovery Circumstances ]

[ show orbit diagram ]
Orbital Elements at Epoch 2459000.5 (2020-May-31.0) TDB
Reference: JPL 13 (heliocentric ecliptic J2000)
 Element Value Uncertainty (1-sigma)   Units 
e .07322520985637856 8.5179e-08  
a 2.576326747306603 3.2829e-08 au
q 2.387674680576476 2.0312e-07 au
i 8.693274649452444 6.4379e-06 deg
node 312.8994164144784 3.8496e-05 deg
peri 234.7100551728358 6.0688e-05 deg
M 208.2331029364138 5.3706e-05 deg
tp 2459637.257977347657
(2022-Feb-26.75797735)
0.00023386 TDB
period 1510.427347994828
4.14
2.887e-05
7.904e-08
d
yr
n .2383431420769222 4.5556e-09 deg/d
Q 2.764978814036731 3.5232e-08 au
  Orbit Determination Parameters
   # obs. used (total)      151  
   data-arc span      6792 days (18.60 yr)  
   first obs. used      2001-02-20  
   last obs. used      2019-09-26  
   planetary ephem.      DE431  
   SB-pert. ephem.      SB431-N16  
   condition code      0  
   norm. resid. RMS      .55915  
   source      ORB  
   producer      Otto Matic  
   solution date      2020-Feb-25 23:54:30  

Additional Information
 Earth MOID = 1.40232 au 
 Jupiter MOID = 2.25204 au 
 T_jup = 3.407 
[ show covariance matrix ]

Ephemeris | Orbit Diagram | Orbital Elements | Mission Design | Physical Parameters | Discovery Circumstances ]

Physical Parameter Table
Parameter Symbol Value Units Sigma Reference Notes
absolute magnitude H 16.5   n/a MPO437487  

351369 (2005 CY67)          Discovered 2005-Feb-02 by LINEAR at Socorro
Reference: 20130127/Numbers.arcLast Updated: 2013-01-31
Ephemeris | Orbit Diagram | Orbital Elements | Mission Design | Physical Parameters | Discovery Circumstances ]
ABOUT SSD CREDITS/AWARDS PRIVACY/COPYRIGHT GLOSSARY LINKS
FirstGov 2020-Jul-12 13:22 UT
(server date/time)  
NASA Home Page
Site Manager:   Ryan S. Park
Webmaster  Alan B. Chamberlin